{"data":{"norad_id":62103,"epoch":"2026-09-21T04:30:59.174496Z","epoch_age_seconds":122063,"freshness":"FRESH","line1":"1 62103U 24220R   26264.18818489  .00011680  00000+0  43302-3 0  9999","line2":"2 62103  42.9990 181.1704 0000702   6.4880 353.5980 15.27599493102857","mean_motion":15.27599493,"eccentricity":7.02e-5,"inclination_deg":42.999,"raan_deg":181.1704,"arg_perigee_deg":6.488,"mean_anomaly_deg":353.598,"bstar":0.00043302,"rev_number":10285,"period_min":94.265545818691,"perigee_km":482.50907643929,"apogee_km":483.47237877225,"semimajor_km":6861.1277276058,"source":"CELESTRAK","updated_at":"2026-09-22T09:00:49.499209Z"}}